Weather Roundup
Issued by NWS Springfield, MO

Home | Current Version | Previous Version | Text Only | Print | Product List | Glossary On
Versions: 1 2 3 4 5 6 7 8 9 10 11 12 13 14 15 16 17 18 19 20 21 22 23 24 25 26 27 28 29 30 31 32 33 34 35 36 37 38 39 40 41 42 43 44 45 46 47 48 49 50
000
NZUS99 KSGF 290807
HRRSGF

HOURLY WEATHER
NATIONAL WEATHER SERVICE SPRINGFIELD MO
200 AM CST MON DEC 29 2014

......SGF CWA......

CITY           SKY/WX    TMP DP  RH WIND       PRES   REMARKS
SPRINGFIELD    CLEAR     23  18  81 CALM      30.17S
JOPLIN         CLEAR     23  20  88 E6        30.18F WCI  16
WEST PLAINS    CLEAR     20  17  88 N3        30.19R
ROLLA          CLEAR     23  20  88 CALM      30.19R
OSAGE BEACH    CLEAR     21  18  86 CALM      30.21S
BRANSON        PTCLDY    21  19  93 CALM      30.18R

......SURROUNDING SGF CWA......

CITY           SKY/WX    TMP DP  RH WIND       PRES   REMARKS
CHANUTE        CLEAR     20  17  88 CALM      30.18S
PARSONS        CLEAR     26  22  84 CALM      30.18F
COFFEYVILLE    CLEAR     23  20  88 CALM      30.18F
EMPORIA        CLEAR     24  19  81 SE5       30.16F WCI  18
GROVE OK       CLEAR     27  27 100 CALM      30.19S
ROGERS AR      PTCLDY    25  24  96 E5        30.16S WCI  19
SILOAM SPRINGS CLEAR     25  18  74 E3        30.17R
HARRISON AR    CLEAR     22  20  92 CALM      30.16S
NEAR YELLVILLE CLEAR     21  18  86 CALM      30.19R

......KANSAS AND MISSOURI......

CITY           SKY/WX    TMP DP  RH WIND       PRES   REMARKS
KANSAS CTY INT CLOUDY    27  21  78 S7        30.20S WCI  19
DOWNTOWN KC    CLOUDY    32  22  66 CALM      30.21S
COLUMBIA       CLEAR     24  19  81 E3        30.22R
SEDALIA        PTCLDY    26  20  77 CALM      30.23R
ST JOSEPH      CLOUDY    28  24  85 CALM      30.22R
ST LOUIS       CLEAR     25  21  85 CALM      30.26R
SPIRIT OF STL  CLEAR     22  19  89 CALM      30.25R
KIRKSVILLE     CLOUDY    26  23  88 CALM      30.24R
WICHITA        PTCLDY    25  17  72 E3        30.13S
TOPEKA         MOCLDY    27  24  89 CALM      30.21R
OLATHE         CLOUDY    28  20  71 SE3       30.19S

......TENNESSEE......

CITY           SKY/WX    TMP DP  RH WIND       PRES   REMARKS
MEMPHIS        CLOUDY    39  35  86 N6        30.16S WCI  35
NASHVILLE      CLOUDY    37  36  96 N6        30.16F FOG     WCI  32

......ARKANSAS.......

CITY           SKY/WX    TMP DP  RH WIND       PRES   REMARKS
FAYETTEVILLE   CLEAR     20  19  96 CALM      30.16F
FT SMITH       CLEAR     29  27  92 NE5       30.18S WCI  24
LITTLE ROCK    CLOUDY    37  31  78 N6        30.20S WCI  32

......OKLAHOMA.......

CITY           SKY/WX    TMP DP  RH WIND       PRES   REMARKS
TULSA          MOCLDY    27  23  85 CALM      30.17S
PONCA CITY     MOCLDY    27  20  75 E5        30.13S WCI  22
MCALESTER      PTCLDY    26  23  88 CALM      30.14F
OKLAHOMA CITY  PTCLDY    32  21  64 SE10      30.07F WCI  24

......IOWA............

CITY           SKY/WX    TMP DP  RH WIND       PRES   REMARKS
DES MOINES     CLOUDY    28  22  78 NE8       30.25R WCI  20
QUAD CITIES    CLOUDY    24  20  84 CALM      30.27R

......ILLINOIS........

CITY           SKY/WX    TMP DP  RH WIND       PRES   REMARKS
QUINCY         PTCLDY    27  22  81 CALM      30.24R
CHICAGO        MOCLDY    27  19  72 N5        30.26R WCI  22




USA.gov is the U.S. government's official web portal to all federal, state and local government web resources and services.